Simultaneous Nadir Overpasses (SNOs) Predictions

Prediction of SNOs over PacNW region [( 10.00, 139.50) to ( 22.70, 165.60)] between AQUA and NPP Satellites:

Table of predicted SNOs over PacNW region for the next 30.0 days since TLE Epoch: 9/10/2022
Index Date (AQUA) Time (AQUA) AQUA Lat,Lon Date (NPP) Time (NPP) NPP Lat,Lon Distance(km) Time Diff (sec)
1 09/10/2022 15:36:19 13.25, 152.96 09/10/2022 15:33:43 13.82, 150.10 315.95 156
2 09/16/2022 02:42:41 10.12, 162.98 09/16/2022 02:46:09 8.17, 158.59 528.98 208
3 09/18/2022 16:21:02 22.60, 143.32 09/18/2022 16:21:47 23.43, 139.73 378.94 45
4 09/26/2022 15:29:25 22.61, 156.27 09/26/2022 15:31:05 23.45, 152.42 405.52 100
5 09/29/2022 03:50:32 22.67, 144.11 09/29/2022 03:47:14 22.05, 141.03 324.01 198
6 10/07/2022 02:58:50 22.69, 157.07 10/07/2022 02:56:31 22.02, 153.72 352.78 139
